Year,Month,Day,Hour,Minute,Value (Times are PST for windgust in km/hr)
2006,12,23,00,00,8.10
2006,12,23,00,01,12.90
2006,12,23,00,02,6.40
2006,12,23,00,03,6.40
2006,12,23,00,04,4.80
2006,12,23,00,05,4.80
2006,12,23,00,06,3.20
2006,12,23,00,07,4.80
2006,12,23,00,08,6.40
2006,12,23,00,09,6.40
2006,12,23,00,10,4.80
2006,12,23,00,11,8.10
2006,12,23,00,12,9.60
2006,12,23,00,13,9.60
2006,12,23,00,14,8.10
2006,12,23,00,15,4.80
2006,12,23,00,16,1.60
2006,12,23,00,17,1.60
2006,12,23,00,18,4.80
2006,12,23,00,19,4.80
2006,12,23,00,20,4.80
2006,12,23,00,21,6.40
2006,12,23,00,22,4.80
2006,12,23,00,23,4.80
2006,12,23,00,24,8.10
2006,12,23,00,25,4.80
2006,12,23,00,26,4.80
2006,12,23,00,27,4.80
2006,12,23,00,28,4.80
2006,12,23,00,29,4.80
2006,12,23,00,30,4.80
2006,12,23,00,31,4.80
2006,12,23,00,32,9.60
2006,12,23,00,33,6.40
2006,12,23,00,34,6.40
2006,12,23,00,35,9.60
2006,12,23,00,36,8.10
2006,12,23,00,37,6.40
2006,12,23,00,38,9.60
2006,12,23,00,39,8.10
2006,12,23,00,40,9.60
2006,12,23,00,41,11.30
2006,12,23,00,42,8.10
2006,12,23,00,43,4.80
2006,12,23,00,44,11.30
2006,12,23,00,45,14.50
2006,12,23,00,46,16.10
2006,12,23,00,47,11.30
2006,12,23,00,48,8.10
2006,12,23,00,49,4.80
2006,12,23,00,50,17.70
2006,12,23,00,51,6.40
2006,12,23,00,52,6.40
2006,12,23,00,53,8.10
2006,12,23,00,54,3.20
2006,12,23,00,55,16.10
2006,12,23,00,56,14.50
2006,12,23,00,57,6.40
2006,12,23,00,58,3.20
2006,12,23,00,59,3.20
2006,12,23,01,00,9.60
2006,12,23,01,01,8.10
2006,12,23,01,02,9.60
2006,12,23,01,03,16.10
2006,12,23,01,04,4.80
2006,12,23,01,05,3.20
2006,12,23,01,06,8.10
2006,12,23,01,07,4.80
2006,12,23,01,08,6.40
2006,12,23,01,09,8.10
2006,12,23,01,10,8.10
2006,12,23,01,11,6.40
2006,12,23,01,12,8.10
2006,12,23,01,13,6.40
2006,12,23,01,14,4.80
2006,12,23,01,15,9.60
2006,12,23,01,16,6.40
2006,12,23,01,17,4.80
2006,12,23,01,18,6.40
2006,12,23,01,19,0.00
2006,12,23,01,20,3.20
2006,12,23,01,21,6.40
2006,12,23,01,22,8.10
2006,12,23,01,23,6.40
2006,12,23,01,24,11.30
2006,12,23,01,25,11.30
2006,12,23,01,26,11.30
2006,12,23,01,27,11.30
2006,12,23,01,28,12.90
2006,12,23,01,29,12.90
2006,12,23,01,30,14.50
2006,12,23,01,31,4.80
2006,12,23,01,32,11.30
2006,12,23,01,33,11.30
2006,12,23,01,34,11.30
2006,12,23,01,35,17.70
2006,12,23,01,36,16.10
2006,12,23,01,37,16.10
2006,12,23,01,38,16.10
2006,12,23,01,39,9.60
2006,12,23,01,40,11.30
2006,12,23,01,41,17.70
2006,12,23,01,42,9.60
2006,12,23,01,43,9.60
2006,12,23,01,44,11.30
2006,12,23,01,45,16.10
2006,12,23,01,46,11.30
2006,12,23,01,47,6.40
2006,12,23,01,48,8.10
2006,12,23,01,49,17.70
2006,12,23,01,50,25.70
2006,12,23,01,51,24.20
2006,12,23,01,52,22.50
2006,12,23,01,53,24.20
2006,12,23,01,54,14.50
2006,12,23,01,55,25.70
2006,12,23,01,56,29.00
2006,12,23,01,57,24.20
2006,12,23,01,58,27.40
2006,12,23,01,59,27.40
2006,12,23,02,00,24.20
2006,12,23,02,01,19.30
2006,12,23,02,02,27.40
2006,12,23,02,03,20.90
2006,12,23,02,04,27.40
2006,12,23,02,05,19.30
2006,12,23,02,06,27.40
2006,12,23,02,07,29.00
2006,12,23,02,08,29.00
2006,12,23,02,09,30.60
2006,12,23,02,10,30.60
2006,12,23,02,11,35.40
2006,12,23,02,12,29.00
2006,12,23,02,13,19.30
2006,12,23,02,14,24.20
2006,12,23,02,15,30.60
2006,12,23,02,16,35.40
2006,12,23,02,17,37.00
2006,12,23,02,18,33.80
2006,12,23,02,19,32.20
2006,12,23,02,20,45.10
2006,12,23,02,21,33.80
2006,12,23,02,22,33.80
2006,12,23,02,23,30.60
2006,12,23,02,24,33.80
2006,12,23,02,25,35.40
2006,12,23,02,26,46.70
2006,12,23,02,27,40.20
2006,12,23,02,28,32.20
2006,12,23,02,29,27.40
2006,12,23,02,30,25.70
2006,12,23,02,31,17.70
2006,12,23,02,32,37.00
2006,12,23,02,33,29.00
2006,12,23,02,34,16.10
2006,12,23,02,35,22.50
2006,12,23,02,36,25.70
2006,12,23,02,37,20.90
2006,12,23,02,38,38.60
2006,12,23,02,39,30.60
2006,12,23,02,40,29.00
2006,12,23,02,41,33.80
2006,12,23,02,42,32.20
2006,12,23,02,43,32.20
2006,12,23,02,44,32.20
2006,12,23,02,45,20.90
2006,12,23,02,46,20.90
2006,12,23,02,47,29.00
2006,12,23,02,48,29.00
2006,12,23,02,49,22.50
2006,12,23,02,50,29.00
2006,12,23,02,51,33.80
2006,12,23,02,52,29.00
2006,12,23,02,53,29.00
2006,12,23,02,54,20.90
2006,12,23,02,55,19.30
2006,12,23,02,56,22.50
2006,12,23,02,57,29.00
2006,12,23,02,58,33.80
2006,12,23,02,59,32.20
2006,12,23,03,00,32.20
2006,12,23,03,01,37.00
2006,12,23,03,02,29.00
2006,12,23,03,03,29.00
2006,12,23,03,04,37.00
2006,12,23,03,05,35.40
2006,12,23,03,06,33.80
2006,12,23,03,07,40.20
2006,12,23,03,08,27.40
2006,12,23,03,09,25.70
2006,12,23,03,10,24.20
2006,12,23,03,11,24.20
2006,12,23,03,12,27.40
2006,12,23,03,13,27.40
2006,12,23,03,14,27.40
2006,12,23,03,15,14.50
2006,12,23,03,16,22.50
2006,12,23,03,17,24.20
2006,12,23,03,18,27.40
2006,12,23,03,19,25.70
2006,12,23,03,20,14.50
2006,12,23,03,21,19.30
2006,12,23,03,22,33.80
2006,12,23,03,23,25.70
2006,12,23,03,24,40.20
2006,12,23,03,25,24.20
2006,12,23,03,26,22.50
2006,12,23,03,27,30.60
2006,12,23,03,28,25.70
2006,12,23,03,29,30.60
2006,12,23,03,30,43.50
2006,12,23,03,31,29.00
2006,12,23,03,32,35.40
2006,12,23,03,33,30.60
2006,12,23,03,34,30.60
2006,12,23,03,35,27.40
2006,12,23,03,36,25.70
2006,12,23,03,37,29.00
2006,12,23,03,38,25.70
2006,12,23,03,39,29.00
2006,12,23,03,40,25.70
2006,12,23,03,41,22.50
2006,12,23,03,42,37.00
2006,12,23,03,43,25.70
2006,12,23,03,44,25.70
2006,12,23,03,45,29.00
2006,12,23,03,46,25.70
2006,12,23,03,47,20.90
2006,12,23,03,48,25.70
2006,12,23,03,49,35.40
2006,12,23,03,50,40.20
2006,12,23,03,51,19.30
2006,12,23,03,52,30.60
2006,12,23,03,53,30.60
2006,12,23,03,54,29.00
2006,12,23,03,55,16.10
2006,12,23,03,56,22.50
2006,12,23,03,57,24.20
2006,12,23,03,58,32.20
2006,12,23,03,59,25.70
2006,12,23,04,00,29.00
2006,12,23,04,01,17.70
2006,12,23,04,02,46.70
2006,12,23,04,03,33.80
2006,12,23,04,04,38.60
2006,12,23,04,05,29.00
2006,12,23,04,06,22.50
2006,12,23,04,07,22.50
2006,12,23,04,08,25.70
2006,12,23,04,09,37.00
2006,12,23,04,10,30.60
2006,12,23,04,11,29.00
2006,12,23,04,12,25.70
2006,12,23,04,13,35.40
2006,12,23,04,14,35.40
2006,12,23,04,15,25.70
2006,12,23,04,16,30.60
2006,12,23,04,17,29.00
2006,12,23,04,18,27.40
2006,12,23,04,19,27.40
2006,12,23,04,20,24.20
2006,12,23,04,21,11.30
2006,12,23,04,22,20.90
2006,12,23,04,23,20.90
2006,12,23,04,24,37.00
2006,12,23,04,25,30.60
2006,12,23,04,26,29.00
2006,12,23,04,27,29.00
2006,12,23,04,28,29.00
2006,12,23,04,29,17.70
2006,12,23,04,30,33.80
2006,12,23,04,31,45.10
2006,12,23,04,32,25.70
2006,12,23,04,33,30.60
2006,12,23,04,34,25.70
2006,12,23,04,35,19.30
2006,12,23,04,36,29.00
2006,12,23,04,37,32.20
2006,12,23,04,38,30.60
2006,12,23,04,39,32.20
2006,12,23,04,40,20.90
2006,12,23,04,41,22.50
2006,12,23,04,42,17.70
2006,12,23,04,43,19.30
2006,12,23,04,44,33.80
2006,12,23,04,45,32.20
2006,12,23,04,46,33.80
2006,12,23,04,47,30.60
2006,12,23,04,48,35.40
2006,12,23,04,49,32.20
2006,12,23,04,50,29.00
2006,12,23,04,51,29.00
2006,12,23,04,52,27.40
2006,12,23,04,53,33.80
2006,12,23,04,54,35.40
2006,12,23,04,55,32.20
2006,12,23,04,56,29.00
2006,12,23,04,57,32.20
2006,12,23,04,58,20.90
2006,12,23,04,59,29.00
2006,12,23,05,00,27.40
2006,12,23,05,01,25.70
2006,12,23,05,02,25.70
2006,12,23,05,03,25.70
2006,12,23,05,04,27.40
2006,12,23,05,05,25.70
2006,12,23,05,06,20.90
2006,12,23,05,07,29.00
2006,12,23,05,08,32.20
2006,12,23,05,09,29.00
2006,12,23,05,10,35.40
2006,12,23,05,11,16.10
2006,12,23,05,12,16.10
2006,12,23,05,13,29.00
2006,12,23,05,14,19.30
2006,12,23,05,15,25.70
2006,12,23,05,16,17.70
2006,12,23,05,17,19.30
2006,12,23,05,18,25.70
2006,12,23,05,19,20.90
2006,12,23,05,20,20.90
2006,12,23,05,21,19.30
2006,12,23,05,22,11.30
2006,12,23,05,23,20.90
2006,12,23,05,24,20.90
2006,12,23,05,25,22.50
2006,12,23,05,26,20.90
2006,12,23,05,27,17.70
2006,12,23,05,28,22.50
2006,12,23,05,29,17.70
2006,12,23,05,30,22.50
2006,12,23,05,31,24.20
2006,12,23,05,32,22.50
2006,12,23,05,33,17.70
2006,12,23,05,34,19.30
2006,12,23,05,35,17.70
2006,12,23,05,36,11.30
2006,12,23,05,37,14.50
2006,12,23,05,38,11.30
2006,12,23,05,39,17.70
2006,12,23,05,40,19.30
2006,12,23,05,41,6.40
2006,12,23,05,42,16.10
2006,12,23,05,43,25.70
2006,12,23,05,44,20.90
2006,12,23,05,45,22.50
2006,12,23,05,46,17.70
2006,12,23,05,47,14.50
2006,12,23,05,48,22.50
2006,12,23,05,49,27.40
2006,12,23,05,50,25.70
2006,12,23,05,51,14.50
2006,12,23,05,52,22.50
2006,12,23,05,53,14.50
2006,12,23,05,54,11.30
2006,12,23,05,55,16.10
2006,12,23,05,56,12.90
2006,12,23,05,57,17.70
2006,12,23,05,58,14.50
2006,12,23,05,59,19.30
2006,12,23,06,00,20.90
2006,12,23,06,01,14.50
2006,12,23,06,02,14.50
2006,12,23,06,03,24.20
2006,12,23,06,04,17.70
2006,12,23,06,05,9.60
2006,12,23,06,06,12.90
2006,12,23,06,07,16.10
2006,12,23,06,08,14.50
2006,12,23,06,09,14.50
2006,12,23,06,10,11.30
2006,12,23,06,11,8.10
2006,12,23,06,12,12.90
2006,12,23,06,13,11.30
2006,12,23,06,14,9.60
2006,12,23,06,15,11.30
2006,12,23,06,16,11.30
2006,12,23,06,17,11.30
2006,12,23,06,18,16.10
2006,12,23,06,19,11.30
2006,12,23,06,20,8.10
2006,12,23,06,21,14.50
2006,12,23,06,22,14.50
2006,12,23,06,23,12.90
2006,12,23,06,24,17.70
2006,12,23,06,25,9.60
2006,12,23,06,26,4.80
2006,12,23,06,27,8.10
2006,12,23,06,28,11.30
2006,12,23,06,29,6.40
2006,12,23,06,30,4.80
2006,12,23,06,31,9.60
2006,12,23,06,32,9.60
2006,12,23,06,33,11.30
2006,12,23,06,34,6.40
2006,12,23,06,35,6.40
2006,12,23,06,36,1.60
2006,12,23,06,37,4.80
2006,12,23,06,38,4.80
2006,12,23,06,39,3.20
2006,12,23,06,40,3.20
2006,12,23,06,41,1.60
2006,12,23,06,42,0.00
2006,12,23,06,43,6.40
2006,12,23,06,44,6.40
2006,12,23,06,45,4.80
2006,12,23,06,46,3.20
2006,12,23,06,47,4.80
2006,12,23,06,48,3.20
2006,12,23,06,49,3.20
2006,12,23,06,50,3.20
2006,12,23,06,51,3.20
2006,12,23,06,52,4.80
2006,12,23,06,53,6.40
2006,12,23,06,54,8.10
2006,12,23,06,55,3.20
2006,12,23,06,56,1.60
2006,12,23,06,57,3.20
2006,12,23,06,58,3.20
2006,12,23,06,59,6.40
2006,12,23,07,00,8.10
2006,12,23,07,01,8.10
2006,12,23,07,02,4.80
2006,12,23,07,03,4.80
2006,12,23,07,04,3.20
2006,12,23,07,05,3.20
2006,12,23,07,06,6.40
2006,12,23,07,07,6.40
2006,12,23,07,08,6.40
2006,12,23,07,09,4.80
2006,12,23,07,10,4.80
2006,12,23,07,11,3.20
2006,12,23,07,12,4.80
2006,12,23,07,13,6.40
2006,12,23,07,14,4.80
2006,12,23,07,15,4.80
2006,12,23,07,16,4.80
2006,12,23,07,17,4.80
2006,12,23,07,18,4.80
2006,12,23,07,19,4.80
2006,12,23,07,20,4.80
2006,12,23,07,21,6.40
2006,12,23,07,22,4.80
2006,12,23,07,23,8.10
2006,12,23,07,24,6.40
2006,12,23,07,25,8.10
2006,12,23,07,26,8.10
2006,12,23,07,27,9.60
2006,12,23,07,28,16.10
2006,12,23,07,29,9.60
2006,12,23,07,30,9.60
2006,12,23,07,31,9.60
2006,12,23,07,32,9.60
2006,12,23,07,33,9.60
2006,12,23,07,34,11.30
2006,12,23,07,35,8.10
2006,12,23,07,36,9.60
2006,12,23,07,37,9.60
2006,12,23,07,38,11.30
2006,12,23,07,39,8.10
2006,12,23,07,40,11.30
2006,12,23,07,41,8.10
2006,12,23,07,42,8.10
2006,12,23,07,43,8.10
2006,12,23,07,44,8.10
2006,12,23,07,45,8.10
2006,12,23,07,46,6.40
2006,12,23,07,47,8.10
2006,12,23,07,48,6.40
2006,12,23,07,49,8.10
2006,12,23,07,50,8.10
2006,12,23,07,51,9.60
2006,12,23,07,52,6.40
2006,12,23,07,53,9.60
2006,12,23,07,54,6.40
2006,12,23,07,55,8.10
2006,12,23,07,56,11.30
2006,12,23,07,57,9.60
2006,12,23,07,58,9.60
2006,12,23,07,59,9.60
2006,12,23,08,00,9.60
2006,12,23,08,01,8.10
2006,12,23,08,02,4.80
2006,12,23,08,03,4.80
2006,12,23,08,04,11.30
2006,12,23,08,05,11.30
2006,12,23,08,06,9.60
2006,12,23,08,07,11.30
2006,12,23,08,08,8.10
2006,12,23,08,09,9.60
2006,12,23,08,10,8.10
2006,12,23,08,11,8.10
2006,12,23,08,12,4.80
2006,12,23,08,13,4.80
2006,12,23,08,14,4.80
2006,12,23,08,15,4.80
2006,12,23,08,16,6.40
2006,12,23,08,17,8.10
2006,12,23,08,18,11.30
2006,12,23,08,19,9.60
2006,12,23,08,20,8.10
2006,12,23,08,21,6.40
2006,12,23,08,22,4.80
2006,12,23,08,23,3.20
2006,12,23,08,24,4.80
2006,12,23,08,25,4.80
2006,12,23,08,26,4.80
2006,12,23,08,27,4.80
2006,12,23,08,28,8.10
2006,12,23,08,29,8.10
2006,12,23,08,30,4.80
2006,12,23,08,31,4.80
2006,12,23,08,32,4.80
2006,12,23,08,33,9.60
2006,12,23,08,34,8.10
2006,12,23,08,35,8.10
2006,12,23,08,36,6.40
2006,12,23,08,37,9.60
2006,12,23,08,38,8.10
2006,12,23,08,39,8.10
2006,12,23,08,40,9.60
2006,12,23,08,41,14.50
2006,12,23,08,42,14.50
2006,12,23,08,43,9.60
2006,12,23,08,44,11.30
2006,12,23,08,45,9.60
2006,12,23,08,46,8.10
2006,12,23,08,47,6.40
2006,12,23,08,48,9.60
2006,12,23,08,49,6.40
2006,12,23,08,50,9.60
2006,12,23,08,51,9.60
2006,12,23,08,52,6.40
2006,12,23,08,53,6.40
2006,12,23,08,54,6.40
2006,12,23,08,55,8.10
2006,12,23,08,56,8.10
2006,12,23,08,57,11.30
2006,12,23,08,58,8.10
2006,12,23,08,59,8.10
2006,12,23,09,00,11.30
2006,12,23,09,01,9.60
2006,12,23,09,02,8.10
2006,12,23,09,03,8.10
2006,12,23,09,04,9.60
2006,12,23,09,05,6.40
2006,12,23,09,06,11.30
2006,12,23,09,07,14.50
2006,12,23,09,08,11.30
2006,12,23,09,09,14.50
2006,12,23,09,10,16.10
2006,12,23,09,11,12.90
2006,12,23,09,12,11.30
2006,12,23,09,13,11.30
2006,12,23,09,14,8.10
2006,12,23,09,15,8.10
2006,12,23,09,16,12.90
2006,12,23,09,17,12.90
2006,12,23,09,18,6.40
2006,12,23,09,19,6.40
2006,12,23,09,20,8.10
2006,12,23,09,21,9.60
2006,12,23,09,22,4.80
2006,12,23,09,23,6.40
2006,12,23,09,24,8.10
2006,12,23,09,25,6.40
2006,12,23,09,26,9.60
2006,12,23,09,27,6.40
2006,12,23,09,28,8.10
2006,12,23,09,29,8.10
2006,12,23,09,30,8.10
2006,12,23,09,31,4.80
2006,12,23,09,32,9.60
2006,12,23,09,33,8.10
2006,12,23,09,34,9.60
2006,12,23,09,35,4.80
2006,12,23,09,36,9.60
2006,12,23,09,37,9.60
2006,12,23,09,38,6.40
2006,12,23,09,39,8.10
2006,12,23,09,40,8.10
2006,12,23,09,41,6.40
2006,12,23,09,42,4.80
2006,12,23,09,43,8.10
2006,12,23,09,44,6.40
2006,12,23,09,45,6.40
2006,12,23,09,46,8.10
2006,12,23,09,47,8.10
2006,12,23,09,48,8.10
2006,12,23,09,49,4.80
2006,12,23,09,50,4.80
2006,12,23,09,51,6.40
2006,12,23,09,52,8.10
2006,12,23,09,53,8.10
2006,12,23,09,54,3.20
2006,12,23,09,55,3.20
2006,12,23,09,56,6.40
2006,12,23,09,57,8.10
2006,12,23,09,58,11.30
2006,12,23,09,59,9.60
2006,12,23,10,00,4.80
2006,12,23,10,01,3.20
2006,12,23,10,02,6.40
2006,12,23,10,03,8.10
2006,12,23,10,04,8.10
2006,12,23,10,05,8.10
2006,12,23,10,06,8.10
2006,12,23,10,07,4.80
2006,12,23,10,08,4.80
2006,12,23,10,09,6.40
2006,12,23,10,10,6.40
2006,12,23,10,11,3.20
2006,12,23,10,12,6.40
2006,12,23,10,13,6.40
2006,12,23,10,14,8.10
2006,12,23,10,15,4.80
2006,12,23,10,16,6.40
2006,12,23,10,17,6.40
2006,12,23,10,18,4.80
2006,12,23,10,19,4.80
2006,12,23,10,20,4.80
2006,12,23,10,21,4.80
2006,12,23,10,22,4.80
2006,12,23,10,23,4.80
2006,12,23,10,24,4.80
2006,12,23,10,25,4.80
2006,12,23,10,26,4.80
2006,12,23,10,27,4.80
2006,12,23,10,28,4.80
2006,12,23,10,29,6.40
2006,12,23,10,30,6.40
2006,12,23,10,31,3.20
2006,12,23,10,32,4.80
2006,12,23,10,33,3.20
2006,12,23,10,34,4.80
2006,12,23,10,35,3.20
2006,12,23,10,36,4.80
2006,12,23,10,37,3.20
2006,12,23,10,38,4.80
2006,12,23,10,39,4.80
2006,12,23,10,40,4.80
2006,12,23,10,41,0.00
2006,12,23,10,42,3.20
2006,12,23,10,43,1.60
2006,12,23,10,44,3.20
2006,12,23,10,45,1.60
2006,12,23,10,46,0.00
2006,12,23,10,47,0.00
2006,12,23,10,48,1.60
2006,12,23,10,49,4.80
2006,12,23,10,50,6.40
2006,12,23,10,51,6.40
2006,12,23,10,52,1.60
2006,12,23,10,53,3.20
2006,12,23,10,54,6.40
2006,12,23,10,55,4.80
2006,12,23,10,56,6.40
2006,12,23,10,57,4.80
2006,12,23,10,58,3.20
2006,12,23,10,59,4.80
2006,12,23,11,00,3.20
2006,12,23,11,01,3.20
2006,12,23,11,02,4.80
2006,12,23,11,03,8.10
2006,12,23,11,04,8.10
2006,12,23,11,05,8.10
2006,12,23,11,06,9.60
2006,12,23,11,07,9.60
2006,12,23,11,08,8.10
2006,12,23,11,09,4.80
2006,12,23,11,10,4.80
2006,12,23,11,11,8.10
2006,12,23,11,12,8.10
2006,12,23,11,13,8.10
2006,12,23,11,14,6.40
2006,12,23,11,15,6.40
2006,12,23,11,16,8.10
2006,12,23,11,17,3.20
2006,12,23,11,18,4.80
2006,12,23,11,19,6.40
2006,12,23,11,20,4.80
2006,12,23,11,21,1.60
2006,12,23,11,22,4.80
2006,12,23,11,23,6.40
2006,12,23,11,24,6.40
2006,12,23,11,25,6.40
2006,12,23,11,26,6.40
2006,12,23,11,27,8.10
2006,12,23,11,28,6.40
2006,12,23,11,29,3.20
2006,12,23,11,30,6.40
2006,12,23,11,31,8.10
2006,12,23,11,32,8.10
2006,12,23,11,33,9.60
2006,12,23,11,34,11.30
2006,12,23,11,35,8.10
2006,12,23,11,36,9.60
2006,12,23,11,37,9.60
2006,12,23,11,38,11.30
2006,12,23,11,39,8.10
2006,12,23,11,40,8.10
2006,12,23,11,41,8.10
2006,12,23,11,42,8.10
2006,12,23,11,43,4.80
2006,12,23,11,44,8.10
2006,12,23,11,45,8.10
2006,12,23,11,46,8.10
2006,12,23,11,47,12.90
2006,12,23,11,48,9.60
2006,12,23,11,49,6.40
2006,12,23,11,50,8.10
2006,12,23,11,51,8.10
2006,12,23,11,52,8.10
2006,12,23,11,53,9.60
2006,12,23,11,54,8.10
2006,12,23,11,55,6.40
2006,12,23,11,56,6.40
2006,12,23,11,57,6.40
2006,12,23,11,58,8.10
2006,12,23,11,59,8.10
2006,12,23,12,00,8.10
2006,12,23,12,01,6.40
2006,12,23,12,02,9.60
2006,12,23,12,03,9.60
2006,12,23,12,04,6.40
2006,12,23,12,05,6.40
2006,12,23,12,06,4.80
2006,12,23,12,07,6.40
2006,12,23,12,08,6.40
2006,12,23,12,09,6.40
2006,12,23,12,10,8.10
2006,12,23,12,11,9.60
2006,12,23,12,12,6.40
2006,12,23,12,13,6.40
2006,12,23,12,14,9.60
2006,12,23,12,15,8.10
2006,12,23,12,16,9.60
2006,12,23,12,17,9.60
2006,12,23,12,18,4.80
2006,12,23,12,19,3.20
2006,12,23,12,20,8.10
2006,12,23,12,21,4.80
2006,12,23,12,22,8.10
2006,12,23,12,23,9.60
2006,12,23,12,24,9.60
2006,12,23,12,25,9.60
2006,12,23,12,26,9.60
2006,12,23,12,27,11.30
2006,12,23,12,28,8.10
2006,12,23,12,29,9.60
2006,12,23,12,30,11.30
2006,12,23,12,31,8.10
2006,12,23,12,32,11.30
2006,12,23,12,33,9.60
2006,12,23,12,34,11.30
2006,12,23,12,35,17.70
2006,12,23,12,36,16.10
2006,12,23,12,37,14.50
2006,12,23,12,38,20.90
2006,12,23,12,39,19.30
2006,12,23,12,40,19.30
2006,12,23,12,41,24.20
2006,12,23,12,42,24.20
2006,12,23,12,43,17.70
2006,12,23,12,44,14.50
2006,12,23,12,45,14.50
2006,12,23,12,46,9.60
2006,12,23,12,47,16.10
2006,12,23,12,48,19.30
2006,12,23,12,49,22.50
2006,12,23,12,50,24.20
2006,12,23,12,51,9.60
2006,12,23,12,52,11.30
2006,12,23,12,53,4.80
2006,12,23,12,54,11.30
2006,12,23,12,55,24.20
2006,12,23,12,56,22.50
2006,12,23,12,57,20.90
2006,12,23,12,58,14.50
2006,12,23,12,59,19.30
2006,12,23,13,00,22.50
2006,12,23,13,01,22.50
2006,12,23,13,02,24.20
2006,12,23,13,03,25.70
2006,12,23,13,04,20.90
2006,12,23,13,05,30.60
2006,12,23,13,06,29.00
2006,12,23,13,07,20.90
2006,12,23,13,08,25.70
2006,12,23,13,09,19.30
2006,12,23,13,10,22.50
2006,12,23,13,11,19.30
2006,12,23,13,12,25.70
2006,12,23,13,13,17.70
2006,12,23,13,14,27.40
2006,12,23,13,15,29.00
2006,12,23,13,16,17.70
2006,12,23,13,17,20.90
2006,12,23,13,18,20.90
2006,12,23,13,19,27.40
2006,12,23,13,20,22.50
2006,12,23,13,21,20.90
2006,12,23,13,22,9.60
2006,12,23,13,23,14.50
2006,12,23,13,24,16.10
2006,12,23,13,25,22.50
2006,12,23,13,26,25.70
2006,12,23,13,27,19.30
2006,12,23,13,28,24.20
2006,12,23,13,29,17.70
2006,12,23,13,30,22.50
2006,12,23,13,31,22.50
2006,12,23,13,32,22.50
2006,12,23,13,33,17.70
2006,12,23,13,34,17.70
2006,12,23,13,35,17.70
2006,12,23,13,36,11.30
2006,12,23,13,37,16.10
2006,12,23,13,38,25.70
2006,12,23,13,39,22.50
2006,12,23,13,40,20.90
2006,12,23,13,41,24.20
2006,12,23,13,42,29.00
2006,12,23,13,43,33.80
2006,12,23,13,44,17.70
2006,12,23,13,45,25.70
2006,12,23,13,46,17.70
2006,12,23,13,47,19.30
2006,12,23,13,48,19.30
2006,12,23,13,49,25.70
2006,12,23,13,50,30.60
2006,12,23,13,51,19.30
2006,12,23,13,52,19.30
2006,12,23,13,53,17.70
2006,12,23,13,54,20.90
2006,12,23,13,55,22.50
2006,12,23,13,56,22.50
2006,12,23,13,57,19.30
2006,12,23,13,58,19.30
2006,12,23,13,59,24.20
2006,12,23,14,00,20.90
2006,12,23,14,01,20.90
2006,12,23,14,02,19.30
2006,12,23,14,03,17.70
2006,12,23,14,04,17.70
2006,12,23,14,05,19.30
2006,12,23,14,06,20.90
2006,12,23,14,07,27.40
2006,12,23,14,08,22.50
2006,12,23,14,09,19.30
2006,12,23,14,10,17.70
2006,12,23,14,11,19.30
2006,12,23,14,12,27.40
2006,12,23,14,13,20.90
2006,12,23,14,14,29.00
2006,12,23,14,15,29.00
2006,12,23,14,16,27.40
2006,12,23,14,17,22.50
2006,12,23,14,18,29.00
2006,12,23,14,19,19.30
2006,12,23,14,20,19.30
2006,12,23,14,21,20.90
2006,12,23,14,22,22.50
2006,12,23,14,23,24.20
2006,12,23,14,24,22.50
2006,12,23,14,25,24.20
2006,12,23,14,26,24.20
2006,12,23,14,27,19.30
2006,12,23,14,28,25.70
2006,12,23,14,29,17.70
2006,12,23,14,30,22.50
2006,12,23,14,31,22.50
2006,12,23,14,32,24.20
2006,12,23,14,33,17.70
2006,12,23,14,34,16.10
2006,12,23,14,35,20.90
2006,12,23,14,36,17.70
2006,12,23,14,37,16.10
2006,12,23,14,38,19.30
2006,12,23,14,39,24.20
2006,12,23,14,40,19.30
2006,12,23,14,41,19.30
2006,12,23,14,42,22.50
2006,12,23,14,43,19.30
2006,12,23,14,44,11.30
2006,12,23,14,45,25.70
2006,12,23,14,46,22.50
2006,12,23,14,47,11.30
2006,12,23,14,48,6.40
2006,12,23,14,49,16.10
2006,12,23,14,50,16.10
2006,12,23,14,51,19.30
2006,12,23,14,52,14.50
2006,12,23,14,53,14.50
2006,12,23,14,54,16.10
2006,12,23,14,55,16.10
2006,12,23,14,56,19.30
2006,12,23,14,57,19.30
2006,12,23,14,58,24.20
2006,12,23,14,59,24.20
2006,12,23,15,00,19.30
2006,12,23,15,01,20.90
2006,12,23,15,02,24.20
2006,12,23,15,03,14.50
2006,12,23,15,04,20.90
2006,12,23,15,05,25.70
2006,12,23,15,06,20.90
2006,12,23,15,07,17.70
2006,12,23,15,08,20.90
2006,12,23,15,09,14.50
2006,12,23,15,10,19.30
2006,12,23,15,11,12.90
2006,12,23,15,12,22.50
2006,12,23,15,13,17.70
2006,12,23,15,14,14.50
2006,12,23,15,15,9.60
2006,12,23,15,16,14.50
2006,12,23,15,17,22.50
2006,12,23,15,18,11.30
2006,12,23,15,19,19.30
2006,12,23,15,20,17.70
2006,12,23,15,21,16.10
2006,12,23,15,22,19.30
2006,12,23,15,23,16.10
2006,12,23,15,24,14.50
2006,12,23,15,25,11.30
2006,12,23,15,26,17.70
2006,12,23,15,27,14.50
2006,12,23,15,28,19.30
2006,12,23,15,29,19.30
2006,12,23,15,30,14.50
2006,12,23,15,31,9.60
2006,12,23,15,32,16.10
2006,12,23,15,33,17.70
2006,12,23,15,34,16.10
2006,12,23,15,35,16.10
2006,12,23,15,36,16.10
2006,12,23,15,37,16.10
2006,12,23,15,38,16.10
2006,12,23,15,39,9.60
2006,12,23,15,40,19.30
2006,12,23,15,41,17.70
2006,12,23,15,42,9.60
2006,12,23,15,43,9.60
2006,12,23,15,44,9.60
2006,12,23,15,45,12.90
2006,12,23,15,46,9.60
2006,12,23,15,47,16.10
2006,12,23,15,48,11.30
2006,12,23,15,49,11.30
2006,12,23,15,50,17.70
2006,12,23,15,51,24.20
2006,12,23,15,52,19.30
2006,12,23,15,53,16.10
2006,12,23,15,54,9.60
2006,12,23,15,55,9.60
2006,12,23,15,56,11.30
2006,12,23,15,57,11.30
2006,12,23,15,58,16.10
2006,12,23,15,59,9.60
2006,12,23,16,00,6.40
2006,12,23,16,01,8.10
2006,12,23,16,02,11.30
2006,12,23,16,03,16.10
2006,12,23,16,04,11.30
2006,12,23,16,05,17.70
2006,12,23,16,06,14.50
2006,12,23,16,07,9.60
2006,12,23,16,08,14.50
2006,12,23,16,09,8.10
2006,12,23,16,10,6.40
2006,12,23,16,11,9.60
2006,12,23,16,12,17.70
2006,12,23,16,13,14.50
2006,12,23,16,14,8.10
2006,12,23,16,15,11.30
2006,12,23,16,16,11.30
2006,12,23,16,17,16.10
2006,12,23,16,18,17.70
2006,12,23,16,19,19.30
2006,12,23,16,20,19.30
2006,12,23,16,21,9.60
2006,12,23,16,22,8.10
2006,12,23,16,23,6.40
2006,12,23,16,24,12.90
2006,12,23,16,25,16.10
2006,12,23,16,26,9.60
2006,12,23,16,27,8.10
2006,12,23,16,28,6.40
2006,12,23,16,29,3.20
2006,12,23,16,30,1.60
2006,12,23,16,31,3.20
2006,12,23,16,32,3.20
2006,12,23,16,33,4.80
2006,12,23,16,34,6.40
2006,12,23,16,35,4.80
2006,12,23,16,36,1.60
2006,12,23,16,37,1.60
2006,12,23,16,38,0.00
2006,12,23,16,39,0.00
2006,12,23,16,40,4.80
2006,12,23,16,41,4.80
2006,12,23,16,42,6.40
2006,12,23,16,43,4.80
2006,12,23,16,44,6.40
2006,12,23,16,45,6.40
2006,12,23,16,46,8.10
2006,12,23,16,47,3.20
2006,12,23,16,48,4.80
2006,12,23,16,49,6.40
2006,12,23,16,50,4.80
2006,12,23,16,51,3.20
2006,12,23,16,52,4.80
2006,12,23,16,53,4.80
2006,12,23,16,54,4.80
2006,12,23,16,55,6.40
2006,12,23,16,56,4.80
2006,12,23,16,57,8.10
2006,12,23,16,58,8.10
2006,12,23,16,59,3.20
2006,12,23,17,00,1.60
2006,12,23,17,01,3.20
2006,12,23,17,02,0.00
2006,12,23,17,03,0.00
2006,12,23,17,04,4.80
2006,12,23,17,05,4.80
2006,12,23,17,06,3.20
2006,12,23,17,07,3.20
2006,12,23,17,08,1.60
2006,12,23,17,09,3.20
2006,12,23,17,10,3.20
2006,12,23,17,11,1.60
2006,12,23,17,12,0.00
2006,12,23,17,13,0.00
2006,12,23,17,14,1.60
2006,12,23,17,15,0.00
2006,12,23,17,16,0.00
2006,12,23,17,17,0.00
2006,12,23,17,18,0.00
2006,12,23,17,19,3.20
2006,12,23,17,20,3.20
2006,12,23,17,21,1.60
2006,12,23,17,22,0.00
2006,12,23,17,23,1.60
2006,12,23,17,24,1.60
2006,12,23,17,25,1.60
2006,12,23,17,26,0.00
2006,12,23,17,27,0.00
2006,12,23,17,28,0.00
2006,12,23,17,29,0.00
2006,12,23,17,30,1.60
2006,12,23,17,31,0.00
2006,12,23,17,32,0.00
2006,12,23,17,33,3.20
2006,12,23,17,34,3.20
2006,12,23,17,35,4.80
2006,12,23,17,36,3.20
2006,12,23,17,37,3.20
2006,12,23,17,38,1.60
2006,12,23,17,39,1.60
2006,12,23,17,40,0.00
2006,12,23,17,41,4.80
2006,12,23,17,42,4.80